Satellite: IO-26
Catalog number: 22826
Epoch time:      09091.84257582
Element set:    0934
Inclination:      098.4215 deg
RA of node:       048.4816 deg
Eccentricity:    0.0009700
Arg of perigee:   122.1315 deg
Mean anomaly:     238.0817 deg
Mean motion:   14.29513105 rev/day
Decay rate:        4.0e-08 rev/day^2
Epoch rev:           80910
Checksum:              289

Satellite: GO-32
Catalog number: 25397
Epoch time:      09091.57923045
Element set:    0859
Inclination:      098.3335 deg
RA of node:       118.0019 deg
Eccentricity:    0.0002064
Arg of perigee:   105.6818 deg
Mean anomaly:     254.4589 deg
Mean motion:   14.23156512 rev/day
Decay rate:       -8.4e-07 rev/day^2
Epoch rev:           55723
Checksum:              312

Satellite: NO-44
Catalog number: 26931
Epoch time:      09092.51483993
Element set:     135
Inclination:      067.0516 deg
RA of node:       259.2949 deg
Eccentricity:    0.0005097
Arg of perigee:   264.5829 deg
Mean anomaly:     095.4681 deg
Mean motion:   14.29551987 rev/day
Decay rate:       -4.7e-07 rev/day^2
Epoch rev:           39176
Checksum:              355

Satellite: SO-50
Catalog number: 27607
Epoch time:      09091.59189399
Element set:     850
Inclination:      064.5561 deg
RA of node:       257.7199 deg
Eccentricity:    0.0075202
Arg of perigee:   222.5337 deg
Mean anomaly:     136.9921 deg
Mean motion:   14.71423300 rev/day
Decay rate:       -8.7e-07 rev/day^2
Epoch rev:           33740
Checksum:              319

Satellite: CO-55
Catalog number: 27844
Epoch time:      09091.57484598
Element set:    0547
Inclination:      098.7143 deg
RA of node:       101.8182 deg
Eccentricity:    0.0010207
Arg of perigee:   010.1410 deg
Mean anomaly:     349.9971 deg
Mean motion:   14.20629361 rev/day
Decay rate:        3.1e-07 rev/day^2
Epoch rev:           29838
Checksum:              311

Satellite: CO-57
Catalog number: 27848
Epoch time:      09091.82349192
Element set:    0494
Inclination:      098.7180 deg
RA of node:       101.1268 deg
Eccentricity:    0.0010170
Arg of perigee:   012.5222 deg
Mean anomaly:     347.6211 deg
Mean motion:   14.20432978 rev/day
Decay rate:        4.2e-07 rev/day^2
Epoch rev:           29838
Checksum:              301

Satellite: AO-51
Catalog number: 28375
Epoch time:      09091.56481326
Element set:    0354
Inclination:      098.0559 deg
RA of node:       105.6281 deg
Eccentricity:    0.0084854
Arg of perigee:   358.3738 deg
Mean anomaly:     001.7164 deg
Mean motion:   14.40637136 rev/day
Decay rate:        3.0e-08 rev/day^2
Epoch rev:           24992
Checksum:              317

Satellite: CO-56
Catalog number: 28941
Epoch time:      09092.68492113
Element set:     955
Inclination:      098.1343 deg
RA of node:       253.4769 deg
Eccentricity:    0.0105735
Arg of perigee:   056.2366 deg
Mean anomaly:     304.9002 deg
Mean motion:   15.76847260 rev/day
Decay rate:     5.2395e-04 rev/day^2
Epoch rev:           17532
Checksum:              335

Satellite: CP3
Catalog number: 31128
Epoch time:      09091.66190445
Element set:    0594
Inclination:      097.9948 deg
RA of node:       148.2823 deg
Eccentricity:    0.0102996
Arg of perigee:   161.8239 deg
Mean anomaly:     198.6681 deg
Mean motion:   14.52028939 rev/day
Decay rate:       -4.6e-07 rev/day^2
Epoch rev:           10379
Checksum:              344

Satellite: CP4
Catalog number: 31132
Epoch time:      09091.89178781
Element set:    0573
Inclination:      098.0028 deg
RA of node:       152.1225 deg
Eccentricity:    0.0086473
Arg of perigee:   150.4017 deg
Mean anomaly:     210.2091 deg
Mean motion:   14.55194132 rev/day
Decay rate:        1.0e-07 rev/day^2
Epoch rev:           10393
Checksum:              265

Satellite: CO-65
Catalog number: 32785
Epoch time:      09091.60069051
Element set:    0333
Inclination:      097.9542 deg
RA of node:       156.1756 deg
Eccentricity:    0.0013877
Arg of perigee:   282.2156 deg
Mean anomaly:     077.7511 deg
Mean motion:   14.81463451 rev/day
Decay rate:       1.73e-06 rev/day^2
Epoch rev:           05010
Checksum:              302

Satellite: SOHLA-1
Catalog number: 33496
Epoch time:      09092.59759831
Element set:     211
Inclination:      098.0297 deg
RA of node:       203.1164 deg
Eccentricity:    0.0006978
Arg of perigee:   154.1592 deg
Mean anomaly:     205.9963 deg
Mean motion:   14.69427164 rev/day
Decay rate:       -3.0e-08 rev/day^2
Epoch rev:            1017
Checksum:              309

/EX
SB KEPS @ AMSAT  $ORB09092.W
Orbital Elements  09092.WEATHER

HR AMSAT ORBITAL ELEMENTS FOR WEATHER SATELLITES
FROM WA5QGD FORT WORTH,TX April 2, 2009
Send Subscribe/unsubscribe to KEPS at 
http://www.amsat.org/mailman/listinfo/keps
BID: ORB09092.W
TO ALL RADIO AMATEURS BT

Satellite: NOAA-10
Catalog number: 16969
Epoch time:      09091.61024306
Element set:    0558
Inclination:      098.6989 deg
RA of node:       118.6513 deg
Eccentricity:    0.0013150
Arg of perigee:   062.0424 deg
Mean anomaly:     298.2100 deg
Mean motion:   14.27382950 rev/day
Decay rate:       -3.8e-07 rev/day^2
Epoch rev:           17258
Checksum:              302

